Content
SEND FEEDBACK

Daily
Averages
Monthly
Summary
United States of America

BROOKLYN, NEW YORK


Home > North America > United States > New York
Elevation: 2 feet     Latitude: 40 36N     Longitude: 073 59W

WEATHER
 
SELECT A DAY
Number of Records: 188,994;   Date Range: 1/1/95 - 11/23/14
 
SHARE

PRINT THIS DATA

[ ← Previous Day ]
WEATHER ALMANAC - FEBRUARY 13, 2013
[ Next Day → ]
[ °C ]   °F
Weather ElementAverageHighLow
Temperature36 °F42.1 °F (1:51 pm)30 °F (2:51 am)
Dewpoint25.1 °F30 °F (11:51 pm)19.9 °F (9:51 am)
Humidity65.5 %82 % (11:51 pm)45 % (9:51 am)
Barometer29.82 in29.97 in (1:51 am)29.71 in (5:51 pm)
Wind Speed4.9 mph15 mph (11:51 pm)
Weather ElementAverage
Visibility9.6 mi
Wind DirectionSE (136.5 °)

Weather ElementTotal
Precipitation---
Heating Degree Days29 (Base 65)
Averaged from 26 records on February 13, 2013
WEATHER CONDITIONS BREAKOUT
WIND DIRECTION BREAKOUT
WEATHER BY HOUR - FEBRUARY 13, 2013
[ °C ]   °F
Local TimeTemperatureDewpointHumidityBarometerVisibilityWind DirectionWind SpeedGust SpeedPrecipitationEventsConditions
1:51 AM30.9 °F23.0 °F72 %29.97 in10.0 miWSW (240°)8.1 mphMostly Cloudy
2:51 AM30.0 °F24.1 °F79 %29.96 in10.0 miWSW (240°)8.1 mphMostly Cloudy
3:51 AM32.0 °F25.0 °F75 %29.94 in10.0 miWNW (300°)9.2 mphScattered Clouds
4:51 AM30.9 °F24.1 °F76 %29.91 in10.0 miNNW (340°)10.4 mphScattered Clouds
5:51 AM30.9 °F21.0 °F67 %29.94 in10.0 miCalmScattered Clouds
6:51 AM32.0 °F23.0 °F69 %29.93 in10.0 miCalmScattered Clouds
7:51 AM34.0 °F27.0 °F75 %29.93 in10.0 miCalmScattered Clouds
8:51 AM37.9 °F23.0 °F55 %29.91 in10.0 miNNE (30°)5.8 mphScattered Clouds
9:51 AM39.9 °F19.9 °F45 %29.90 in10.0 miCalmScattered Clouds
10:51 AM39.0 °F21.9 °F50 %29.91 in10.0 miSouth (190°)10.4 mphScattered Clouds
11:51 AM39.0 °F21.0 °F49 %29.89 in10.0 miSSW (210°)4.6 mphMostly Cloudy
12:51 PM39.9 °F23.0 °F51 %29.85 in10.0 miSW (220°)4.6 mphMostly Cloudy
1:51 PM42.1 °F23.0 °F47 %29.78 in10.0 miCalmMostly Cloudy
2:51 PM39.0 °F25.0 °F57 %29.79 in10.0 miSouth (180°)8.1 mphMostly Cloudy
3:51 PM39.0 °F25.0 °F57 %29.77 in10.0 miSE (140°)6.9 mphMostly Cloudy
4:51 PM37.9 °F25.0 °F60 %29.74 in10.0 miNE (50°)3.5 mphMostly Cloudy
5:51 PM37.9 °F25.0 °F60 %29.71 in10.0 miENE (60°)5.8 mphMostly Cloudy
6:51 PM37.9 °F25.0 °F60 %29.73 in10.0 miESE (120°)3.5 mphOvercast
7:51 PM37.0 °F27.0 °F67 %29.71 in10.0 miNE (40°)4.6 mph0.00 inSnowLight Snow
8:51 PM36.0 °F28.0 °F73 %29.72 in9.0 miSSE (160°)3.5 mph0.00 inSnowLight Snow
9:07 PM35.6 °F28.4 °F75 %29.72 in8.0 miCalm0.00 inSnowLight Snow
9:48 PM35.6 °F28.4 °F75 %29.71 in9.0 miCalm0.00 inSnowLight Snow
9:51 PM36.0 °F28.9 °F76 %29.71 in9.0 miCalm0.00 inSnowLight Snow
10:51 PM36.0 °F28.9 °F76 %29.71 in10.0 miNNW (330°)3.5 mph0.00 inOvercast
11:40 PM35.6 °F28.4 °F75 %29.71 in7.0 miNorth (350°)12.7 mph0.00 inSnowLight Snow
11:51 PM35.1 °F30.0 °F82 %29.71 in7.0 miNorth (350°)15.0 mph0.00 inSnowLight Snow
Hourly data recorded from KJFK, located miles away from Brooklyn, New York







STORIES FROM OUR PARTNERS